RH
84 69 67 66 68 72 70 70 71 70 71 78 78 84 65 44 84 34 28 31 49 70 86 79 69 66 65 65 63 64 64 65 65 68 67 70 69 70 73 82 73 63 73
70 77 56 62 66 70 69 70 72 71 71 72 70 78 76 44 75 38 32 30 26 30 83 98 63 79 70 70 68 67 66 68 85 87 83 78 70 70 74 81 66 59 69
82 77 59 60 63 66 70 72 72 71 70 69 63 69 73 48 44 41 36 37 35 31 29 34 44 53 60 56 55 56 59 67 86 90 88 81 80 72 73 75 74 50 54
80 86 70 64 66 65 65 70 70 69 68 65 69 70 76 57 68 40 40 42 43 42 39 35 37 42 46 49 48 44 40 56 73 80 87 97 89 80 80 78 79 67 55
79 84 81 74 68 68 68 69 72 70 68 68 72 73 64 61 52 43 43 45 48 48 47 45 42 41 43 44 44 42 44 60 68 78 82 91 89 79 81 81 81 81 80
81 82 69 71 70 68 68 68 68 70 69 68 72 74 73 76 76 75 66 54 48 50 52 52 51 49 48 47 47 48 50 62 72 80 81 75 69 77 81 83 86 85 82
82 83 69 73 67 64 64 68 67 62 65 67 68 72 71 75 77 81 75 51 49 50 54 57 56 58 58 57 55 53 50 57 67 72 81 54 45 65 77 82 84 85 86
86 89 68 71 69 63 63 66 62 55 54 57 61 66 70 74 76 78 78 65 51 51 56 65 68 66 68 64 61 60 59 56 77 72 81 74 44 44 63 80 85 85 85
75 94 85 70 66 65 63 62 59 54 56 56 56 63 69 73 72 75 76 75 65 60 66 75 75 70 67 65 65 64 63 66 82 74 88 68 63 58 40 48 62 72 82
55 88 91 69 63 66 65 64 60 59 60 58 56 61 67 74 77 81 80 82 80 78 79 77 72 69 70 70 72 70 68 84 85 86 87 75 64 68 69 65 43 45 53
57 54 82 74 92 80 61 62 62 62 56 55 62 65 75 96 93 80 84 84 82 76 73 73 71 71 73 91 90 74 88 82 91 86 86 81 68 72 74 73 71 71 62
67 53 49 53 70 72 58 55 53 52 58 61 66 70 80 95 93 85 81 80 79 78 77 76 76 78 80 89 87 88 81 89 88 89 89 83 75 74 74 75 72 69 67
68 67 44 35 41 43 63 40 49 58 68 68 84 81 80 76 80 86 95 94 95 94 97 98 88 82 77 76 87 93 72 80 98 93 92 86 78 73 71 70 73 72 69
67 73 68 52 44 41 56 57 71 88 90 78 80 67 72 88 90 99 99 97 98 97 99 98 86 98 82 90 82 80 75 78 87 94 90 79 77 75 74 74 76 76 74
64 74 79 67 55 52 90 66 90 88 89 87 96 67 78 98 98 96 96 98 96 97 87 83 83 80 78 89 88 93 88 84 81 80 80 80 76 78 76 75 74 74 74
68 69 77 69 73 68 80 74 89 90 82 93 92 75 69 93 92 99 93 61 60 48 44 44 47 46 40 46 51 71 72 82 84 86 85 83 82 75 70 68 60 57 64
62 70 69 74 70 88 70 90 82 90 95 89 87 70 57 56 59 60 54 45 37 31 29 30 33 34 39 73 57 67 59 56 59 75 88 77 74 70 64 58 50 41 31
55 64 70 69 62 77 64 75 68 77 78 79 61 45 43 42 40 40 36 33 28 24 22 21 22 22 25 41 47 51 64 56 56 69 74 73 72 64 55 38 35 34 33
51 56 62 68 64 62 66 74 72 71 62 56 47 39 39 40 40 35 32 28 25 21 19 19 18 18 19 21 22 26 26 27 32 49 70 74 71 50 44 38 41 46 52
48 51 54 61 69 62 70 83 80 76 63 63 54 48 43 41 36 33 30 26 23 20 19 18 18 18 18 19 18 18 20 22 24 32 41 65 68 58 45 50 57 81 98
46 48 49 54 69 74 78 88 76 57 52 55 53 46 38 37 34 33 30 26 23 20 18 18 19 19 20 22 22 22 24 26 36 45 43 46 58 53 49 52 62 78 95
44 47 48 51 60 69 73 70 68 59 55 52 57 50 44 40 36 35 32 29 24 21 20 20 20 21 22 25 31 30 46 41 54 60 59 46 42 45 53 56 67 79 99
34 44 46 47 58 63 66 71 76 78 77 64 56 50 44 41 37 36 35 33 29 26 25 25 25 24 25 32 33 34 48 60 73 69 65 58 68 58 55 67 73 95 99
26 28 27 34 53 64 71 67 72 63 54 49 47 44 45 45 41 40 39 39 37 35 33 33 33 32 30 30 34 37 46 48 56 58 82 75 62 74 70 70 77 87 88
30 31 31 31 53 71 70 73 71 75 70 63 57 54 50 48 46 43 44 45 44 42 39 38 37 38 38 36 36 40 47 59 61 77 74 74 81 73 79 73 79 93 99
36 39 41 40 55 74 77 79 65 75 78 71 66 57 50 47 49 47 47 49 49 42 40 40 42 45 47 45 42 42 47 57 66 83 84 80 79 78 75 84 69 98 99
Wind_Speed
4 3 5 3 3 4 4 4 4 5 6 7 8 9 10 11 10 12 13 13 12 12 13 11 14 15 15 15 15 15 15 15 15 14 13 12 10 11 11 11 10 10 12
6 2 4 5 5 4 4 4 4 4 5 6 6 6 8 9 10 11 12 12 11 11 13 12 11 15 13 13 14 14 15 16 17 16 14 14 8 8 8 8 9 8 9
5 3 6 5 5 4 5 4 4 4 4 5 5 5 6 8 9 10 10 11 11 11 11 11 12 12 12 11 13 13 13 15 17 14 13 13 10 6 6 6 6 6 7
9 5 3 5 5 4 4 4 5 4 4 4 6 6 5 8 7 8 8 9 10 10 11 11 11 12 12 12 13 13 14 15 15 11 8 8 7 6 5 5 5 5 5
13 8 6 5 6 5 5 5 5 4 4 4 4 5 5 6 5 7 7 8 8 9 10 11 12 12 12 11 12 12 13 13 13 12 11 5 6 4 4 3 3 4 4
9 7 7 7 6 5 5 5 5 5 4 4 4 4 4 4 3 3 4 5 5 7 7 9 9 10 10 10 10 11 11 11 11 11 5 4 6 5 4 3 2 2 2
8 7 8 8 7 6 5 5 5 4 4 3 2 3 2 2 1 2 3 4 3 4 5 6 7 8 10 10 10 10 10 9 10 8 5 9 6 6 6 4 2 2 1
11 7 10 8 7 6 6 7 6 4 3 2 2 2 1 1 2 2 1 1 1 2 2 3 4 6 8 8 8 8 8 8 7 8 7 9 9 6 4 4 4 3 2
12 7 7 8 8 7 7 7 6 5 3 2 3 2 2 2 2 1 1 1 1 1 1 1 2 4 7 7 7 7 8 7 5 6 3 7 8 8 6 4 4 3 3
10 11 6 7 9 7 8 8 7 6 4 4 4 3 2 1 1 2 2 2 2 1 1 2 4 6 8 8 9 9 6 8 8 6 6 6 5 6 6 6 6 5 5
10 12 14 10 9 7 9 9 7 6 6 5 4 4 3 3 1 2 1 1 2 2 3 4 6 7 8 10 10 8 6 3 4 5 6 5 4 4 4 4 5 5 6
12 12 13 13 13 13 9 9 9 7 6 6 6 6 5 6 5 1 1 2 3 3 3 5 6 5 2 4 7 6 2 2 3 5 8 8 6 5 5 5 5 7 8
15 13 14 14 14 13 11 9 8 7 7 7 7 7 7 5 4 2 1 1 2 2 3 5 6 8 7 4 5 4 3 2 3 9 10 8 7 8 9 10 11 11 10
20 18 16 15 16 14 13 11 6 7 7 7 9 8 7 5 5 5 6 5 3 4 3 3 3 6 6 7 8 8 7 6 7 8 10 11 11 12 13 13 13 14 14
20 21 20 18 16 15 15 12 10 9 10 7 9 9 9 6 5 8 5 4 4 6 6 7 7 9 8 9 6 8 8 8 8 9 11 13 12 12 13 14 14 15 15
20 21 21 19 18 16 18 13 15 12 10 11 9 8 10 10 8 7 8 8 9 7 8 8 8 9 9 9 8 11 11 11 11 12 13 15 15 15 14 15 16 17 18
22 20 20 20 18 17 16 16 15 14 13 15 14 12 10 11 10 9 9 9 9 8 8 8 8 9 7 6 9 9 9 10 10 9 10 14 14 16 15 15 15 15 16
22 22 20 20 20 21 18 18 16 17 17 14 15 12 11 10 10 9 9 9 7 8 7 8 8 8 8 8 9 8 10 12 11 10 12 13 15 16 16 16 15 14 14
26 24 23 23 22 22 21 20 18 18 17 18 16 14 12 11 10 10 9 9 7 8 7 7 8 7 7 9 9 10 11 12 11 11 12 11 17 17 13 13 14 13 13
25 26 25 25 25 22 23 22 20 20 18 18 16 15 13 12 11 11 9 9 7 7 7 6 7 8 8 9 10 11 12 12 13 13 12 13 15 16 14 12 10 9 11
27 27 27 26 27 24 25 27 25 23 19 20 18 17 15 14 13 12 11 9 8 8 7 7 7 8 8 10 10 10 10 11 11 10 13 13 12 15 14 11 10 9 8
30 30 29 28 28 25 26 26 24 21 19 19 19 19 17 16 14 14 12 11 9 8 8 7 7 8 8 9 8 10 6 8 10 11 11 11 13 14 15 14 11 9 4
32 33 31 29 29 28 26 26 24 21 19 21 23 22 21 19 18 17 14 12 10 9 8 7 8 8 9 10 11 7 3 2 4 8 10 13 11 13 14 11 9 5 5
26 28 28 30 30 30 28 27 28 29 27 24 22 20 21 21 20 18 15 13 12 10 9 8 9 10 11 11 12 12 10 13 8 4 7 9 15 12 13 12 11 8 9
19 23 23 25 27 29 29 28 29 29 25 22 21 21 22 23 23 19 17 15 13 11 10 10 11 12 13 13 13 13 14 13 12 14 17 11 9 14 13 11 13 8 9
12 15 16 21 24 27 27 28 29 28 25 24 24 23 24 23 23 21 19 17 15 13 11 10 12 14 14 15 14 14 14 14 12 9 14 16 14 12 15 15 16 8 10
Wind_Direction
163 201 168 161 137 112 101 90 82 74 70 71 69 64 55 60 64 66 69 71 77 77 77 74 78 76 74 74 71 68 66 66 67 62 59 58 74 84 88 85 81 73 74
194 165 163 152 134 119 110 99 97 90 83 78 79 72 59 62 69 67 70 76 80 80 81 68 85 77 73 74 74 72 72 74 71 58 49 41 49 80 87 91 83 78 74
151 201 154 144 134 134 130 125 112 101 90 86 82 85 74 68 68 69 74 78 73 69 65 65 68 74 79 71 67 63 62 70 75 69 46 24 26 59 78 81 83 79 72
127 158 168 153 140 142 141 136 128 119 109 97 96 92 82 80 81 74 74 71 69 70 70 69 67 63 63 65 65 63 65 73 67 53 73 51 21 31 70 85 83 80 79
148 183 199 173 159 153 148 149 135 133 120 111 102 101 98 99 85 80 74 67 64 67 69 67 63 64 63 60 59 59 62 65 59 63 41 63 15 39 62 76 82 77 64
149 193 187 177 164 154 154 154 149 141 133 128 122 114 108 110 92 70 58 61 64 66 69 74 77 74 70 60 54 54 57 63 68 56 46 9 28 42 53 59 66 59 51
171 200 178 171 163 156 155 166 159 147 144 140 144 145 161 130 120 83 69 77 76 74 68 72 76 64 55 45 41 39 44 56 49 65 22 25 40 48 44 45 42 33 27
174 162 172 174 169 172 170 176 169 169 159 165 186 206 214 151 145 142 127 103 92 80 74 75 73 60 34 35 33 31 29 47 54 33 5 26 32 39 48 50 36 14 351
184 167 168 179 183 186 188 188 194 182 180 201 228 230 219 231 222 220 230 244 243 211 87 32 40 17 7 8 11 19 24 42 49 28 336 16 20 28 28 20 8 7 359
166 170 185 193 190 196 195 192 191 203 220 222 221 220 219 237 247 238 249 243 239 297 340 330 330 341 352 350 349 359 39 49 23 18 320 353 3 9 21 24 16 355 334
190 185 193 198 176 205 201 207 214 224 220 215 197 189 173 97 141 251 269 257 232 265 296 312 320 334 355 1 357 25 70 23 62 285 294 321 327 346 2 4 6 355 346
205 200 205 199 201 202 222 202 213 216 212 206 191 194 192 188 205 287 237 258 265 283 287 291 308 319 340 340 331 327 280 254 214 270 275 291 299 311 324 316 320 322 320
209 212 214 206 209 208 203 211 213 203 208 211 194 206 205 210 199 192 82 333 299 279 313 306 328 317 309 293 279 306 331 282 318 254 266 283 292 301 301 299 299 298 299
202 213 220 218 211 205 205 209 202 203 223 221 218 215 213 201 206 188 215 228 247 256 245 308 264 302 326 334 307 307 293 283 263 277 288 287 291 293 293 292 289 287 290
215 209 219 216 218 205 207 202 191 199 224 210 233 223 199 191 208 209 214 211 233 250 256 260 268 261 264 250 275 280 288 291 293 287 285 290 294 295 296 293 289 287 286
222 218 219 221 221 208 203 201 197 195 215 214 228 230 200 205 219 202 233 240 246 259 271 277 279 282 286 284 275 262 269 269 272 278 286 290 293 294 294 292 290 288 285
220 229 226 222 218 212 209 207 204 192 212 218 217 221 219 217 222 227 238 251 260 271 271 275 278 286 291 288 297 301 313 303 294 291 295 292 295 294 296 297 297 296 294
220 222 230 228 221 212 216 215 215 212 218 216 231 229 229 232 238 234 247 254 270 271 276 275 279 281 274 271 278 270 259 278 280 284 279 286 283 288 292 297 300 301 296
214 218 222 227 228 218 220 219 220 223 222 221 231 232 229 231 234 242 246 261 269 277 282 282 281 287 283 280 285 287 285 285 285 269 270 275 283 292 299 296 297 306 297
218 215 221 222 229 225 215 220 220 225 229 226 231 233 231 233 235 242 249 262 269 270 272 278 280 291 298 293 291 294 297 295 297 288 275 265 283 293 298 295 294 311 320
217 217 217 220 224 227 214 218 222 229 232 228 230 235 236 237 235 239 243 247 249 258 269 277 283 292 296 298 304 300 307 307 306 307 297 292 286 294 302 301 288 259 290
221 217 217 219 227 232 226 228 231 237 237 237 234 236 237 238 237 238 242 245 246 248 251 262 273 281 289 295 305 311 328 328 278 291 307 306 300 299 302 299 294 296 322
225 223 218 218 224 232 234 230 227 228 231 232 233 234 235 236 234 236 238 241 242 247 257 267 280 284 285 289 295 288 291 265 313 273 299 307 312 316 314 295 301 297 284
230 233 230 220 220 230 234 232 226 230 235 242 246 242 237 236 238 238 240 242 243 244 252 266 276 283 284 280 273 282 270 261 277 275 259 292 304 309 312 287 285 279 282
241 240 237 224 220 226 236 237 233 234 240 245 244 242 241 238 240 239 238 240 243 243 247 261 277 283 282 279 272 266 269 275 268 263 281 282 276 303 297 289 276 268 276
230 232 233 222 220 228 236 238 239 238 236 238 240 243 244 242 240 238 238 241 243 243 253 269 279 283 283 281 277 272 267 265 269 270 275 285 287 281 268 280 293 255 254